Terminal Aerodrome Forecast
Issued by NWS Boise, ID

Home | Current Version | Previous Version | Text Only | Print | Product List | Glossary On
Versions: 1 2 3 4 5 6 7 8 9 10 11 12
000
FTUS45 KBOI 210526
TAFBNO
TAF
KBNO 210526Z 2106/2206 28006KT P6SM FEW250
     FM211200 29004KT P6SM SKC
     FM211600 15004KT P6SM SKC
     FM220200 VRB05KT P6SM SKC=

USA.gov is the U.S. government's official web portal to all federal, state and local government web resources and services.